Location: Bourthes
(50.6056°N, 1.9339°E)
Time: 02:09:17
(UTC+00:00)

Daily predictions for brighter satellites

Satellite Brightness Start Highest point End
(mag) Time Altitude Azimuth Time Altitude Azimuth Time Altitude Azimuth
CENTAUR R/B 4.4 00:01:49 10° WNW 00:08:02 31° N 00:15:06 10° ENE
ATLAS 3B R/B 4.3 01:22:13 27° NNW 01:22:55 27° N 01:28:45 10° NE
CZ-2D R/B 4.4 01:23:56 10° NNE 01:25:31 20° NNE 01:25:31 20° NNE
SL-16 R/B 4.4 01:47:17 21° NNW 01:47:17 21° NNW 01:49:12 10° NNW
CENTAUR R/B 3.9 01:53:23 10° NW 02:00:39 45° NNE 02:08:53 10° E
Resurs 1-4 Rocket 4.1 01:55:25 10° NNE 01:57:29 24° N 01:57:29 24° N
Cosmos 2360 Rocket 3.9 02:09:21 10° NNW 02:22:23 - SE 02:12:07 26° N
ADEOS II 3.7 02:14:46 10° NNE 02:17:29 31° NNE 02:17:29 31° NNE
IDEFIX/ARIANE 42P 4.1 02:16:23 10° NNE 02:19:41 32° NE 02:19:41 32° NE
USA 229 DEB 4.3 02:22:53 49° N 02:22:53 49° N 02:28:44 10° NE
USA 229 4.3 02:22:58 49° N 02:22:58 49° N 02:28:50 10° NE
USA 234 4.3 02:20:38 10° ESE 02:24:09 35° ESE 02:24:09 35° ESE
ADEOS Rocket 4.0 02:30:07 34° N 02:30:07 34° N 02:33:14 10° N
Lacrosse 5 4.0 02:40:09 20° ESE 02:40:09 20° ESE 02:41:42 10° ESE
Cosmos 1833 Rocket 4.3 02:39:48 26° NNW 02:39:48 26° NNW 02:43:06 10° NNE
NOSS 3-1 (A) 4.2 02:39:30 44° N 02:39:30 44° N 02:45:15 10° NE
Cosmos 2082 Rocket 3.4 02:42:36 35° N 02:42:36 35° N 02:46:19 10° NNE
Cosmos 2333 Rocket 3.7 02:37:58 10° NNW 02:43:15 35° NE 02:48:30 10° ESE
MSX 4.5 02:38:43 10° NNE 02:44:10 49° E 02:44:10 49° E
Cosmos 2221 4.3 02:53:27 30° ENE 02:53:27 30° ENE 02:56:19 10° NNE
Cosmos 2219 Rocket 3.6 02:53:02 10° NNW 02:58:17 37° NE 03:03:31 10° ESE
CZ-2C R/B 4.1 02:56:49 10° NE 03:00:48 26° E 03:02:02 23° ESE
CZ-2D R/B 4.0 03:04:40 10° N 03:06:51 20° NNW 03:06:51 20° NNW
USA 238 DEB 3.8 03:05:12 10° NW 03:12:25 81° NE 03:19:58 10° SE
USA 238 3.8 03:05:18 10° NW 03:12:31 81° NE 03:20:05 10° SE
GEOS 3 Rocket 3.8 03:08:47 10° NE 03:13:38 67° N 03:13:38 67° N
COSMOS 2428 3.9 03:09:16 10° NNW 03:14:42 41° NE 03:20:05 10° ESE
ATLAS 3B R/B 4.1 03:09:27 10° NW 03:15:35 34° NNE 03:21:58 10° E
CZ-4B R/B 4.0 03:12:34 10° NNE 03:16:35 54° N 03:16:35 54° N
Meteor 2-15 4.5 03:21:44 64° NW 03:21:44 64° NW 03:27:26 10° N
S3M 4.1 03:21:13 47° SSE 03:23:00 72° E 03:29:12 10° NNE
ARIANE 5 R/B 2.6 03:18:56 10° NNE 03:23:22 68° N 03:23:22 68° N
Cosmos 1745 Rocket 3.9 03:18:06 10° N 03:24:26 88° W 03:26:32 46° S
SeaSat 1 4.5 03:20:52 10° E 03:24:56 26° NE 03:29:00 10° NNW
USA 267 3.1 03:27:51 10° ENE 03:34:26 86° NNW 03:35:57 57° WSW
Cosmos 2322 3.8 03:29:47 10° NNW 03:35:31 74° ENE 03:41:11 10° SE
Cosmos 1709 Rocket 4.2 03:29:47 10° N 03:36:11 71° ENE 03:42:32 10° SSE
Resurs 1-4 Rocket 4.2 03:36:43 10° NNW 03:38:34 14° NW 03:38:34 14° NW
IRS-P3 4.5 03:35:50 10° N 03:40:30 49° NW 03:40:30 49° NW
NOSS 3-2 (A) 3.9 03:33:42 10° NW 03:41:05 69° SW 03:49:29 10° SSE
Meteor 1-4 Rocket 4.0 03:42:49 32° NNE 03:42:49 32° NNE 03:44:53 10° NNE
H-2A R/B 3.7 03:39:28 10° SE 03:43:14 33° ENE 03:46:57 10° N
NOSS 2-2 (C) 4.4 03:44:33 35° N 03:44:33 35° N 03:47:34 10° NE
Spot 4 Rocket 3.9 03:40:34 10° NNE 03:45:45 83° WNW 03:46:28 66° SW
Cosmos 1842 Rocket 3.9 03:48:19 51° NNW 03:48:19 51° NNW 03:51:45 10° N
Iridium 4 Rocket 4.3 03:49:26 30° NNW 03:49:26 30° NNW 03:51:51 10° N
COSMOS 2487 3.5 03:50:12 43° E 03:50:12 43° E 03:53:14 10° NE
Cosmos 2344 3.6 03:46:42 37° SSW 03:49:58 78° SE 03:58:04 10° NE
Cosmos 1833 4.2 03:48:29 45° S 03:50:15 76° ESE 03:55:54 10° NNE
Cosmos 1386 Rocket 4.5 03:45:05 10° NNW 03:51:23 61° W 03:53:42 38° SSW
CENTAUR R/B 3.1 03:44:08 10° NW 03:52:09 80° SW 04:01:01 10° SE
Cosmos 2251 Rocket 3.8 03:53:53 31° S 03:56:23 66° ESE 04:01:44 10° NNE
Cosmos 2360 Rocket 4.3 03:53:27 10° NW 04:04:24 - S 03:53:49 12° NW
ADEOS II 3.7 03:55:25 10° N 03:58:26 20° NW 03:58:26 20° NW
ISS -2.7 04:00:41 42° ESE 04:00:41 42° ESE 04:03:02 10° ESE
IDEFIX/ARIANE 42P 3.4 03:56:10 10° N 04:00:30 34° NW 04:00:30 34° NW
Meteor 2-17 Rocket 4.3 03:55:31 10° N 04:01:36 89° E 04:07:40 10° S
ALOS 3.1 03:57:40 10° NNE 04:02:14 49° E 04:06:45 10° S
PAYLOAD A 4.0 03:57:09 10° NNE 04:02:30 86° WNW 04:05:04 33° SSW
CZ-2C R/B 2.8 04:00:44 10° N 04:04:14 64° NW 04:04:14 64° NW
Cosmos 2237 Rocket 3.5 04:00:43 10° NNW 04:06:04 40° NE 04:11:22 10° ESE
Cosmos 2333 4.2 04:00:50 10° NW 04:06:34 64° WSW 04:12:16 10° SSE
USA 234 3.7 04:04:43 10° SSE 04:10:40 37° SW 04:11:34 35° WSW
CZ-4C R/B 3.2 04:10:13 16° S 04:13:51 41° ESE 04:19:21 10° NE
PSLV R/B 3.5 04:10:32 10° NNE 04:14:57 86° ESE 04:17:21 27° SSW
Cosmos 883 Rocket 4.3 04:11:11 19° SSW 04:15:47 76° WNW 04:21:56 10° N
USA 276 2.9 04:16:02 42° SSE 04:16:02 42° SSE 04:18:58 10° E
GENESIS II 4.1 04:17:05 58° SW 04:17:49 87° NW 04:21:49 10° NE
Lacrosse 5 2.3 04:19:24 38° SW 04:19:28 38° SW 04:24:07 10° SSE
NOSS 3-4 (A) 4.3 04:16:29 11° S 04:21:51 45° ESE 04:27:47 10° NE
NOSS 3-4 (C) 4.3 04:16:33 11° S 04:21:58 44° ESE 04:27:53 10° NE
Cosmos 192 4.3 04:17:28 10° NNW 04:22:28 89° E 04:27:26 10° SSE
NOSS 3-2 (C) 4.0 04:15:45 10° NW 04:23:07 62° SW 04:31:27 10° SSE
Cosmos 2082 Rocket 4.1 04:24:26 13° NW 04:26:24 15° NNW 04:29:40 10° N
SL-27 R/B 4.3 04:27:25 19° NW 04:27:25 19° NW 04:29:24 10° N
Cosmos 2333 Rocket 2.3 04:22:11 10° NW 04:27:49 55° WSW 04:33:24 10° S
SL-16 R/B 4.2 04:23:59 10° NNW 04:28:49 27° NE 04:33:36 10° E
Cosmos 2221 3.6 04:30:18 28° WNW 04:30:18 28° WNW 04:33:44 10° N
Cosmos 1484 Rocket 2.8 04:28:11 10° NNE 04:31:55 76° ESE 04:35:27 11° S
Cosmos 1805 Rocket 3.8 04:28:08 10° NNW 04:32:27 48° W 04:36:43 10° SSW
Cosmos 1437 Rocket 4.0 04:31:07 10° SSE 04:34:59 45° E 04:38:50 10° NNE
SJ-6F 4.5 04:31:14 10° NNE 04:35:27 83° ESE 04:39:38 10° SSW
ATLAS 2AS CENTAUR R/B 4.0 04:29:45 10° S 04:37:11 46° ESE 04:44:32 10° NE
Landsat 5 3.5 04:33:47 10° S 04:37:29 45° W 04:41:18 10° NNW
CZ-2C R/B 2.6 04:34:43 10° N 04:39:15 45° WNW 04:41:25 26° WSW
Cosmos 2315 Rocket 4.0 04:35:05 10° SSW 04:41:12 61° WNW 04:47:23 10° N
CZ-4B R/B 2.5 04:38:43 10° SE 04:41:39 41° ENE 04:44:33 10° N
Cosmos 2219 Rocket 2.3 04:36:58 10° NW 04:42:24 49° WSW 04:47:50 10° S
COSMO-SKYMED 1 3.1 04:38:21 10° SSE 04:42:38 63° ENE 04:46:58 10° N
Cosmos 2297 Rocket 4.3 04:38:08 10° SSE 04:42:50 28° ESE 04:47:32 10° NE
Cosmos 1782 3.6 04:41:06 10° S 04:44:56 54° E 04:48:50 10° NNE
CBERS 1 LM4 rocket 4.3 04:42:10 10° NNE 04:47:00 88° WNW 04:51:44 10° SSW
Cosmos 1606 3.4 04:47:57 29° WSW 04:48:59 34° WNW 04:52:35 10° N
Sich 1 3.4 04:44:54 10° NNW 04:49:05 42° W 04:53:12 10° SSW
Cosmos 1140 Rocket 3.9 04:45:17 10° S 04:50:25 64° ESE 04:55:33 10° NNE
Cosmos 1980 3.9 04:45:30 10° NNW 04:51:12 78° ENE 04:56:53 10° SSE
Cosmos 1500 4.2 04:47:42 10° N 04:51:25 49° ENE 04:55:07 10° SSE
METEOR-M 4.1 04:47:37 10° NNE 04:52:59 82° WNW 04:58:19 10° SSW
ERS-2 4.2 04:52:55 10° SE 04:56:07 30° ENE 04:59:22 10° N
Cosmos 1666 Rocket 3.6 04:51:59 10° NNW 04:56:17 56° W 05:00:34 10° S
Cosmos 2074 Rocket 3.9 04:50:49 10° NNW 04:57:03 79° W 05:03:15 10° S
COSMOS 2428 3.0 04:53:39 10° NW 04:59:02 43° WSW 05:04:24 10° S
BREEZE M DEB (TANK) 2.6 04:59:34 25° W 05:01:02 56° SSW 05:07:26 10° ESE
MOS 1 Rocket 3.1 04:57:21 10° S 05:01:48 80° WSW 05:06:31 10° NNW
SeaSat 1 2.4 04:57:09 10° SSE 05:02:05 72° WSW 05:07:02 10° NNW
ARIANE 5 R/B 4.1 04:59:25 10° NNW 05:02:24 16° NW 05:03:43 15° WNW
BREEZE-M DEB (TANK) 2.5 05:00:38 20° W 05:03:36 77° S 05:06:00 10° E
Cosmos 2154 Rocket 4.1 04:58:14 10° N 05:04:31 82° E 05:10:48 10° SSE
ATLAS 5 CENTAUR R/B 1.6 05:00:50 11° SW 05:04:39 73° SE 05:09:13 10° NE
CZ-4C R/B 4.1 05:04:28 22° WSW 05:04:50 22° W 05:07:37 10° NW
SKYMED 3 4.5 05:02:21 10° S 05:06:42 77° WSW 05:11:04 10° NNW
ATLAS 3B R/B 2.9 05:00:18 10° NW 05:07:17 79° NE 05:14:33 10° SE
CZ-4B R/B 3.6 05:04:01 10° NNE 05:07:44 87° WNW 05:11:23 10° SSW
ADEOS 3.6 05:03:01 10° NNE 05:08:18 88° WNW 05:13:32 10° SSW
Cosmos 1602 3.9 05:06:13 10° NNW 05:10:02 50° W 05:13:48 10° S
FENGYUN 3A 4.0 05:08:53 10° N 05:14:03 45° WNW 05:19:10 10° SW
USA 267 3.7 05:10:52 10° ENE 05:17:11 54° N 05:23:18 11° W
H-2A R/B 2.8 05:15:32 10° SSW 05:19:14 29° W 05:22:53 10° NW
Cosmos 1151 Rocket 3.1 05:16:28 10° SSW 05:20:42 55° WNW 05:24:57 10° N
Cosmos 909 Rocket 4.1 05:15:37 10° SW 05:22:03 66° NW 05:28:23 10° NE
Cosmos 2219 4.2 05:17:06 10° S 05:22:32 50° ESE 05:27:59 10° NE
NOSS 0 Rocket 4.1 05:17:01 10° NW 05:22:57 50° WSW 05:28:53 10° S
Cosmos 1763 Rocket 4.0 05:18:29 10° NNW 05:23:43 64° ENE 05:28:50 10° SE
Cosmos 2184 Rocket 4.1 05:17:47 10° NNW 05:23:55 54° W 05:30:05 10° SSW
Meteor 2-12 Rocket 4.4 05:18:07 10° NNW 05:24:18 82° W 05:30:27 10° S
COSMOS 2487 4.1 05:23:34 14° W 05:25:05 17° NW 05:27:29 10° N
Cosmos 1633 Rocket 3.7 05:23:17 10° NNW 05:27:17 34° W 05:31:13 10° SSW
SKYMED 2 3.9 05:26:35 10° S 05:30:46 45° W 05:34:58 10° NNW
Geosat 4.3 05:26:57 10° NNE 05:31:47 48° NW 05:36:35 10° WSW
H-2A R/B 2.9 05:28:56 10° NNE 05:32:52 83° ESE 05:36:45 10° SSW
Cosmos 1242 Rocket 2.7 05:32:20 10° S 05:35:47 75° E 05:39:18 10° NNE
ISS -2.3 05:33:39 11° W 05:36:08 22° SW 05:38:48 10° SSE
Cosmos 468 Rocket 4.1 05:30:54 10° NNW 05:36:09 82° ENE 05:41:19 10° SSE
Cosmos 1933 4.5 05:35:48 10° WSW 05:39:06 24° WNW 05:42:26 10° NNW
ALOS 3.4 05:35:35 10° N 05:39:23 25° WNW 05:43:10 10° WSW
Cosmos 1812 2.7 05:37:10 10° S 05:40:59 85° W 05:44:52 10° N
CENTAUR R/B 4.1 05:35:43 10° WNW 05:42:09 26° WSW 05:48:58 10° SSW
CZ-2C R/B 3.2 05:37:18 10° SSE 05:42:52 70° ENE 05:48:27 10° N
Meteor 1-11 Rocket 4.1 05:37:43 10° N 05:43:15 72° ENE 05:48:49 10° SSE
BREEZE-M DEB (TANK) 2.0 05:42:14 10° WNW 05:44:15 59° N 05:46:55 10° E
Meteor 1-31 Rocket 3.4 05:40:48 10° N 05:44:22 36° WNW 05:47:54 10° SW
Cosmos 1954 Rocket 4.0 05:43:51 10° SSW 05:49:07 80° WNW 05:54:24 10° NNE
RESURS DK-1 2.8 05:45:21 10° SSW 05:49:26 67° ESE 05:53:33 10° NE
Cosmos 2237 Rocket 2.5 05:44:51 10° NW 05:50:14 45° WSW 05:55:34 10° S
Cosmos 1869 Rocket 3.9 05:45:47 10° N 05:50:18 76° E 05:54:47 10° SSE
